Terminal Aerodrome Forecast
Issued by NWS Sioux Falls, SD

Home | Current Version | Previous Version | Graphics & Text | Print | Product List | Glossary Off
Versions: 1 2 3 4 5 6 7 8 9 10 11 12 13 14 15 16 17 18 19 20 21 22 23 24 25 26 27 28 29 30 31 32 33 34 35 36 37 38 39 40 41 42 43

000
FTUS43 KFSD 250421 AAC
TAFSUX
TAF AMD
KSUX 250421Z 2504/2524 VRB03KT 4SM BR OVC020
     FM250900 VRB03KT 2SM BR OVC007
     FM251300 28005KT 4SM BR OVC015
     FM251700 20007KT P6SM VCTS OVC035CB
      TEMPO 2517/2520 5SM -TSRA
     FM252100 19008KT P6SM VCTS SCT025 OVC050CB=

USA.gov is the U.S. government's official web portal to all federal, state and local government web resources and services.